Time,TemperatureF,DewpointF,PressureIn,WindDirection,WindDirectionDegrees,WindSpeedMPH,WindSpeedGustMPH,Humidity,HourlyPrecipIn,Conditions,Clouds,dailyrainin,SoftwareType,DateUTC
2013-06-07 00:03:00,56.9,0.0,29.94,NE,50,0.0,0.0,0,0.00,,---,0.00,VWS V14.00,2013-06-07 05:03:00,
2013-06-07 00:08:00,56.9,0.0,29.94,NE,51,0.0,0.0,0,0.00,,---,0.00,VWS V14.00,2013-06-07 05:08:00,
2013-06-07 00:13:00,56.9,0.0,29.94,NE,51,0.0,0.0,0,0.00,,---,0.00,VWS V14.00,2013-06-07 05:13:00,
2013-06-07 00:18:00,56.9,0.0,29.94,NNE,33,0.0,0.0,0,0.00,,---,0.00,VWS V14.00,2013-06-07 05:18:00,
2013-06-07 00:23:00,56.7,0.0,29.94,NNE,33,0.0,0.0,0,0.00,,---,0.00,VWS V14.00,2013-06-07 05:23:00,
2013-06-07 00:28:00,56.7,0.0,29.94,NNE,31,0.0,0.0,0,0.00,,---,0.00,VWS V14.00,2013-06-07 05:28:00,
2013-06-07 00:33:00,56.7,0.0,29.94,NNE,30,0.0,0.0,0,0.00,,---,0.00,VWS V14.00,2013-06-07 05:33:00,
2013-06-07 00:38:00,56.7,0.0,29.94,NNE,30,0.0,0.0,0,0.00,,---,0.00,VWS V14.00,2013-06-07 05:38:00,
2013-06-07 00:43:00,56.7,0.0,29.94,NNE,30,0.0,0.0,0,0.00,,---,0.00,VWS V14.00,2013-06-07 05:43:00,
2013-06-07 00:49:00,56.7,0.0,29.94,NNE,30,0.0,0.0,0,0.00,,---,0.00,VWS V14.00,2013-06-07 05:49:00,
2013-06-07 00:54:00,56.7,0.0,29.94,NNE,30,0.0,0.0,0,0.00,,---,0.00,VWS V14.00,2013-06-07 05:54:00,
2013-06-07 00:59:00,56.7,0.0,29.94,NNE,30,0.0,0.0,0,0.00,,---,0.00,VWS V14.00,2013-06-07 05:59:00,
2013-06-07 01:04:00,56.6,0.0,29.93,NNE,30,0.0,0.0,0,0.00,,---,0.00,VWS V14.00,2013-06-07 06:04:00,
2013-06-07 01:09:00,56.6,0.0,29.93,NNE,17,0.0,0.0,0,0.00,,---,0.00,VWS V14.00,2013-06-07 06:09:00,
2013-06-07 01:14:00,56.6,0.0,29.93,North,5,0.0,0.0,0,0.00,,---,0.00,VWS V14.00,2013-06-07 06:14:00,
2013-06-07 01:19:00,56.6,0.0,29.93,North,355,0.0,0.0,0,0.00,,---,0.00,VWS V14.00,2013-06-07 06:19:00,
2013-06-07 01:24:00,56.6,0.0,29.94,North,349,0.0,0.0,0,0.00,,---,0.00,VWS V14.00,2013-06-07 06:24:00,
2013-06-07 01:29:00,56.5,0.0,29.94,NNW,340,0.0,0.0,0,0.00,,---,0.00,VWS V14.00,2013-06-07 06:29:00,
2013-06-07 01:34:00,56.5,0.0,29.94,NNW,336,0.0,0.0,0,0.00,,---,0.00,VWS V14.00,2013-06-07 06:34:00,
2013-06-07 01:39:00,56.5,0.0,29.94,NNW,340,0.0,1.0,0,0.00,,---,0.00,VWS V14.00,2013-06-07 06:39:00,
2013-06-07 01:44:00,56.5,0.0,29.94,NNW,343,0.0,1.0,0,0.00,,---,0.00,VWS V14.00,2013-06-07 06:44:00,
2013-06-07 01:50:00,56.5,0.0,29.94,NNW,343,0.0,1.0,0,0.00,,---,0.00,VWS V14.00,2013-06-07 06:50:00,
2013-06-07 01:55:00,56.5,0.0,29.94,NNW,343,0.0,1.0,0,0.00,,---,0.00,VWS V14.00,2013-06-07 06:55:00,
2013-06-07 02:00:00,56.5,0.0,29.94,NNW,343,0.0,1.0,0,0.00,,---,0.00,VWS V14.00,2013-06-07 07:00:00,
2013-06-07 02:05:00,56.5,0.0,29.94,NNW,343,0.0,0.0,0,0.00,,---,0.00,VWS V14.00,2013-06-07 07:05:00,
2013-06-07 02:10:00,56.5,0.0,29.94,NNW,342,0.0,0.0,0,0.00,,---,0.00,VWS V14.00,2013-06-07 07:10:00,
2013-06-07 02:15:00,56.5,0.0,29.94,NNW,341,0.0,0.0,0,0.00,,---,0.00,VWS V14.00,2013-06-07 07:15:00,
2013-06-07 02:20:00,56.5,0.0,29.94,NNW,341,0.0,0.0,0,0.00,,---,0.00,VWS V14.00,2013-06-07 07:20:00,
2013-06-07 02:25:00,56.6,0.0,29.94,NNW,341,0.0,0.0,0,0.00,,---,0.00,VWS V14.00,2013-06-07 07:25:00,
2013-06-07 02:30:00,56.5,0.0,29.94,NNW,338,0.0,0.0,0,0.00,,---,0.00,VWS V14.00,2013-06-07 07:30:00,
2013-06-07 02:35:00,56.6,0.0,29.93,NW,323,0.0,1.0,0,0.00,,---,0.00,VWS V14.00,2013-06-07 07:35:00,
2013-06-07 02:40:00,56.6,0.0,29.94,NW,323,0.0,1.0,0,0.00,,---,0.00,VWS V14.00,2013-06-07 07:40:00,
2013-06-07 02:45:00,56.5,0.0,29.93,NW,323,0.0,1.0,0,0.00,,---,0.00,VWS V14.00,2013-06-07 07:45:00,
2013-06-07 02:50:00,56.5,0.0,29.93,NW,325,0.0,1.0,0,0.00,,---,0.00,VWS V14.00,2013-06-07 07:50:00,
2013-06-07 02:56:00,56.5,0.0,29.93,NNW,331,0.0,1.0,0,0.00,,---,0.00,VWS V14.00,2013-06-07 07:56:00,
2013-06-07 03:01:00,56.3,0.0,29.93,NNW,333,3.0,5.0,0,0.00,,---,0.00,VWS V14.00,2013-06-07 08:01:00,
2013-06-07 03:06:00,56.2,0.0,29.93,NNW,329,0.0,7.0,0,0.00,,---,0.00,VWS V14.00,2013-06-07 08:06:00,
2013-06-07 03:11:00,56.2,0.0,29.93,NNW,344,0.0,7.0,0,0.00,,---,0.00,VWS V14.00,2013-06-07 08:11:00,
2013-06-07 03:16:00,56.2,0.0,29.93,NNW,345,0.0,7.0,0,0.00,,---,0.00,VWS V14.00,2013-06-07 08:16:00,
2013-06-07 03:21:00,56.0,0.0,29.93,NNE,12,0.0,7.0,0,0.00,,---,0.00,VWS V14.00,2013-06-07 08:21:00,
2013-06-07 03:26:00,56.0,0.0,29.93,NNE,12,0.0,7.0,0,0.00,,---,0.00,VWS V14.00,2013-06-07 08:26:00,
2013-06-07 03:31:00,55.9,0.0,29.93,NNE,15,0.0,0.0,0,0.00,,---,0.00,VWS V14.00,2013-06-07 08:31:00,
2013-06-07 03:36:00,55.9,0.0,29.93,NNE,13,0.0,0.0,0,0.00,,---,0.00,VWS V14.00,2013-06-07 08:36:00,
2013-06-07 03:41:00,55.7,0.0,29.93,NNE,18,0.0,1.0,0,0.00,,---,0.00,VWS V14.00,2013-06-07 08:41:00,
2013-06-07 03:46:00,55.7,0.0,29.93,NNE,19,0.0,1.0,0,0.00,,---,0.00,VWS V14.00,2013-06-07 08:46:00,
2013-06-07 03:52:00,55.6,0.0,29.93,NNE,13,0.0,1.0,0,0.00,,---,0.00,VWS V14.00,2013-06-07 08:52:00,
2013-06-07 03:57:00,55.6,0.0,29.93,North,355,0.0,1.0,0,0.00,,---,0.00,VWS V14.00,2013-06-07 08:57:00,
2013-06-07 04:02:00,55.4,0.0,29.93,North,350,0.0,0.0,0,0.00,,---,0.00,VWS V14.00,2013-06-07 09:02:00,
2013-06-07 04:07:00,55.4,0.0,29.93,NNW,335,0.0,6.0,0,0.00,,---,0.00,VWS V14.00,2013-06-07 09:07:00,
2013-06-07 04:12:00,55.4,0.0,29.93,NNW,332,0.0,6.0,0,0.00,,---,0.00,VWS V14.00,2013-06-07 09:12:00,
2013-06-07 04:17:00,55.4,0.0,29.93,NNW,332,0.0,6.0,0,0.00,,---,0.00,VWS V14.00,2013-06-07 09:17:00,
2013-06-07 04:22:00,55.4,0.0,29.93,NNW,332,0.0,6.0,0,0.00,,---,0.00,VWS V14.00,2013-06-07 09:22:00,
2013-06-07 04:27:00,55.3,0.0,29.93,NNW,333,0.0,6.0,0,0.00,,---,0.00,VWS V14.00,2013-06-07 09:27:00,
2013-06-07 04:32:00,55.3,0.0,29.93,NNW,333,0.0,0.0,0,0.00,,---,0.00,VWS V14.00,2013-06-07 09:32:00,
2013-06-07 04:37:00,55.3,0.0,29.93,NNW,340,0.0,0.0,0,0.00,,---,0.00,VWS V14.00,2013-06-07 09:37:00,
2013-06-07 04:42:00,55.4,0.0,29.93,NNW,338,0.0,0.0,0,0.00,,---,0.00,VWS V14.00,2013-06-07 09:42:00,
2013-06-07 04:47:00,55.4,0.0,29.93,NNW,338,0.0,1.0,0,0.00,,---,0.00,VWS V14.00,2013-06-07 09:47:00,
2013-06-07 04:52:00,55.3,0.0,29.93,NNW,342,0.0,7.0,0,0.00,,---,0.00,VWS V14.00,2013-06-07 09:52:00,
2013-06-07 04:58:00,55.3,0.0,29.93,NNW,343,3.0,7.0,0,0.00,,---,0.00,VWS V14.00,2013-06-07 09:58:00,
2013-06-07 05:03:00,55.3,0.0,29.93,NNW,346,3.0,5.0,0,0.00,,---,0.00,VWS V14.00,2013-06-07 10:03:00,
2013-06-07 05:08:00,55.3,0.0,29.94,NNW,346,0.0,5.0,0,0.00,,---,0.00,VWS V14.00,2013-06-07 10:08:00,
2013-06-07 05:13:00,55.3,0.0,29.94,NNW,346,0.0,5.0,0,0.00,,---,0.00,VWS V14.00,2013-06-07 10:13:00,
2013-06-07 05:18:00,55.3,0.0,29.94,NNW,347,0.0,5.0,0,0.00,,---,0.00,VWS V14.00,2013-06-07 10:18:00,
2013-06-07 05:23:00,55.3,0.0,29.94,NNW,347,0.0,5.0,0,0.00,,---,0.00,VWS V14.00,2013-06-07 10:23:00,
2013-06-07 05:28:00,55.3,0.0,29.94,NNW,347,0.0,5.0,0,0.00,,---,0.00,VWS V14.00,2013-06-07 10:28:00,
2013-06-07 05:33:00,55.1,0.0,29.94,North,350,0.0,0.0,0,0.00,,---,0.00,VWS V14.00,2013-06-07 10:33:00,
2013-06-07 05:38:00,55.1,0.0,29.94,North,350,0.0,0.0,0,0.00,,---,0.00,VWS V14.00,2013-06-07 10:38:00,
2013-06-07 05:43:00,55.1,0.0,29.94,North,355,0.0,0.0,0,0.00,,---,0.00,VWS V14.00,2013-06-07 10:43:00,
2013-06-07 05:48:00,55.1,0.0,29.94,North,360,0.0,0.0,0,0.00,,---,0.00,VWS V14.00,2013-06-07 10:48:00,
2013-06-07 05:53:00,55.1,0.0,29.94,North,355,0.0,0.0,0,0.00,,---,0.00,VWS V14.00,2013-06-07 10:53:00,
2013-06-07 05:58:00,55.0,0.0,29.94,NNE,13,0.0,0.0,0,0.00,,---,0.00,VWS V14.00,2013-06-07 10:58:00,
2013-06-07 06:03:00,55.0,0.0,29.94,NNE,25,0.0,0.0,0,0.00,,---,0.00,VWS V14.00,2013-06-07 11:03:00,
2013-06-07 06:08:00,55.0,0.0,29.94,NNE,24,0.0,0.0,0,0.00,,---,0.00,VWS V14.00,2013-06-07 11:08:00,
2013-06-07 06:14:00,55.0,0.0,29.95,NNE,24,0.0,0.0,0,0.00,,---,0.00,VWS V14.00,2013-06-07 11:14:00,
2013-06-07 06:19:00,55.0,0.0,29.95,NNE,22,0.0,1.0,0,0.00,,---,0.00,VWS V14.00,2013-06-07 11:19:00,
2013-06-07 06:24:00,55.0,0.0,29.95,NNE,15,0.0,1.0,0,0.00,,---,0.00,VWS V14.00,2013-06-07 11:24:00,
2013-06-07 06:29:00,55.0,0.0,29.95,NNE,13,0.0,1.0,0,0.00,,---,0.00,VWS V14.00,2013-06-07 11:29:00,
2013-06-07 06:34:00,55.0,0.0,29.94,NNE,12,0.0,1.0,0,0.00,,---,0.00,VWS V14.00,2013-06-07 11:34:00,
2013-06-07 06:39:00,55.0,0.0,29.95,NNE,13,0.0,1.0,0,0.00,,---,0.00,VWS V14.00,2013-06-07 11:39:00,
2013-06-07 06:44:00,55.0,0.0,29.95,NNE,13,0.0,1.0,0,0.00,,---,0.00,VWS V14.00,2013-06-07 11:44:00,
2013-06-07 06:49:00,55.0,0.0,29.95,NNE,15,0.0,1.0,0,0.00,,---,0.00,VWS V14.00,2013-06-07 11:49:00,
2013-06-07 06:54:00,55.0,0.0,29.95,NNE,14,0.0,1.0,0,0.00,,---,0.00,VWS V14.00,2013-06-07 11:54:00,
2013-06-07 06:59:00,55.0,0.0,29.95,NNE,15,0.0,1.0,0,0.00,,---,0.00,VWS V14.00,2013-06-07 11:59:00,
2013-06-07 07:04:00,55.0,0.0,29.95,NNE,15,0.0,0.0,0,0.00,,---,0.00,VWS V14.00,2013-06-07 12:04:00,
2013-06-07 07:09:00,55.0,0.0,29.95,NNE,15,0.0,1.0,0,0.00,,---,0.00,VWS V14.00,2013-06-07 12:09:00,
2013-06-07 07:14:00,55.0,0.0,29.95,NNE,15,0.0,1.0,0,0.00,,---,0.00,VWS V14.00,2013-06-07 12:14:00,
2013-06-07 07:19:00,55.0,0.0,29.95,NNE,15,0.0,1.0,0,0.00,,---,0.00,VWS V14.00,2013-06-07 12:19:00,
2013-06-07 07:24:00,55.0,0.0,29.95,NNE,15,0.0,1.0,0,0.00,,---,0.00,VWS V14.00,2013-06-07 12:24:00,
2013-06-07 07:29:00,55.1,0.0,29.95,NNE,15,0.0,1.0,0,0.00,,---,0.00,VWS V14.00,2013-06-07 12:29:00,
2013-06-07 07:34:00,55.1,0.0,29.95,North,360,0.0,4.0,0,0.00,,---,0.00,VWS V14.00,2013-06-07 12:34:00,
2013-06-07 07:39:00,55.0,0.0,29.95,North,360,0.0,4.0,0,0.00,,---,0.00,VWS V14.00,2013-06-07 12:39:00,
2013-06-07 07:45:00,55.0,0.0,29.96,North,5,0.0,4.0,0,0.00,,---,0.00,VWS V14.00,2013-06-07 12:45:00,
2013-06-07 07:50:00,54.8,0.0,29.96,North,5,0.0,4.0,0,0.00,,---,0.00,VWS V14.00,2013-06-07 12:50:00,
2013-06-07 07:55:00,54.8,0.0,29.96,North,5,0.0,4.0,0,0.00,,---,0.00,VWS V14.00,2013-06-07 12:55:00,
2013-06-07 08:00:00,55.0,0.0,29.96,North,5,0.0,4.0,0,0.00,,---,0.00,VWS V14.00,2013-06-07 13:00:00,
2013-06-07 08:05:00,55.0,0.0,29.97,North,360,0.0,2.0,0,0.00,,---,0.00,VWS V14.00,2013-06-07 13:05:00,
2013-06-07 08:10:00,55.0,0.0,29.97,North,360,0.0,2.0,0,0.00,,---,0.00,VWS V14.00,2013-06-07 13:10:00,
2013-06-07 08:15:00,54.8,0.0,29.97,North,5,0.0,2.0,0,0.00,,---,0.00,VWS V14.00,2013-06-07 13:15:00,
2013-06-07 08:20:00,54.8,0.0,29.97,North,355,0.0,2.0,0,0.00,,---,0.00,VWS V14.00,2013-06-07 13:20:00,
2013-06-07 08:46:00,54.5,0.0,29.98,North,355,0.0,0.0,0,0.00,,---,0.00,VWS V14.00,2013-06-07 13:46:00,
2013-06-07 08:51:00,54.5,0.0,29.98,North,355,0.0,0.0,0,0.00,,---,0.00,VWS V14.00,2013-06-07 13:51:00,
2013-06-07 08:57:00,54.5,0.0,29.98,North,355,0.0,1.0,0,0.00,,---,0.00,VWS V14.00,2013-06-07 13:57:00,
2013-06-07 09:02:00,54.7,0.0,29.98,North,355,0.0,0.0,0,0.00,,---,0.00,VWS V14.00,2013-06-07 14:02:00,
2013-06-07 09:07:00,54.8,0.0,29.98,North,355,0.0,0.0,0,0.00,,---,0.00,VWS V14.00,2013-06-07 14:07:00,
2013-06-07 09:12:00,55.1,0.0,29.98,North,355,0.0,0.0,0,0.00,,---,0.00,VWS V14.00,2013-06-07 14:12:00,
2013-06-07 09:17:00,55.3,0.0,29.98,North,355,0.0,5.0,0,0.00,,---,0.00,VWS V14.00,2013-06-07 14:17:00,
2013-06-07 09:22:00,55.3,0.0,29.98,NNW,346,0.0,5.0,0,0.00,,---,0.00,VWS V14.00,2013-06-07 14:22:00,
2013-06-07 09:27:00,55.3,0.0,29.98,NNW,341,0.0,7.0,0,0.00,,---,0.00,VWS V14.00,2013-06-07 14:27:00,
2013-06-07 09:32:00,55.3,0.0,29.98,NNW,338,0.0,0.0,0,0.00,,---,0.00,VWS V14.00,2013-06-07 14:32:00,
2013-06-07 09:37:00,55.4,0.0,29.98,NNW,344,0.0,1.0,0,0.00,,---,0.00,VWS V14.00,2013-06-07 14:37:00,
2013-06-07 09:42:00,55.4,0.0,29.98,NNW,340,0.0,7.0,0,0.00,,---,0.00,VWS V14.00,2013-06-07 14:42:00,
2013-06-07 09:47:00,55.6,0.0,29.98,NNW,331,0.0,7.0,0,0.00,,---,0.00,VWS V14.00,2013-06-07 14:47:00,
2013-06-07 09:52:00,55.7,0.0,29.98,NNW,333,0.0,7.0,0,0.00,,---,0.00,VWS V14.00,2013-06-07 14:52:00,
2013-06-07 09:57:00,55.9,0.0,29.98,North,351,0.0,7.0,0,0.00,,---,0.00,VWS V14.00,2013-06-07 14:57:00,
2013-06-07 10:02:00,56.2,0.0,29.98,NNW,342,0.0,0.0,0,0.00,,---,0.00,VWS V14.00,2013-06-07 15:02:00,
2013-06-07 10:07:00,56.5,0.0,29.98,NNW,344,0.0,0.0,0,0.00,,---,0.00,VWS V14.00,2013-06-07 15:07:00,
2013-06-07 10:12:00,56.6,0.0,29.98,NNW,344,0.0,0.0,0,0.00,,---,0.00,VWS V14.00,2013-06-07 15:12:00,
2013-06-07 10:18:00,56.7,0.0,29.98,NNW,340,0.0,6.0,0,0.00,,---,0.00,VWS V14.00,2013-06-07 15:18:00,
2013-06-07 10:23:00,56.9,0.0,29.98,NNW,344,0.0,6.0,0,0.00,,---,0.00,VWS V14.00,2013-06-07 15:23:00,
2013-06-07 10:28:00,57.2,0.0,29.98,NNW,345,0.0,6.0,0,0.00,,---,0.00,VWS V14.00,2013-06-07 15:28:00,
2013-06-07 10:33:00,57.3,0.0,29.98,NNW,346,0.0,0.0,0,0.00,,---,0.00,VWS V14.00,2013-06-07 15:33:00,
2013-06-07 10:38:00,57.5,0.0,29.97,North,10,0.0,0.0,0,0.00,,---,0.00,VWS V14.00,2013-06-07 15:38:00,
2013-06-07 10:43:00,58.0,0.0,29.97,North,9,0.0,0.0,0,0.00,,---,0.00,VWS V14.00,2013-06-07 15:43:00,
2013-06-07 10:48:00,58.1,0.0,29.97,NNE,26,0.0,4.0,0,0.00,,---,0.00,VWS V14.00,2013-06-07 15:48:00,
2013-06-07 10:53:00,58.4,0.0,29.97,NNE,19,0.0,6.0,0,0.00,,---,0.00,VWS V14.00,2013-06-07 15:53:00,
2013-06-07 10:58:00,58.7,0.0,29.97,North,355,2.0,6.0,0,0.00,,---,0.00,VWS V14.00,2013-06-07 15:58:00,
2013-06-07 11:03:00,59.0,0.0,29.97,NNW,348,0.0,5.0,0,0.00,,---,0.00,VWS V14.00,2013-06-07 16:03:00,
2013-06-07 11:08:00,59.5,0.0,29.97,North,5,0.0,7.0,0,0.00,,---,0.00,VWS V14.00,2013-06-07 16:08:00,
2013-06-07 11:13:00,60.1,0.0,29.97,North,5,0.0,7.0,0,0.00,,---,0.00,VWS V14.00,2013-06-07 16:13:00,
2013-06-07 11:19:00,60.9,0.0,29.97,NNE,15,3.0,7.0,0,0.00,,---,0.00,VWS V14.00,2013-06-07 16:19:00,
2013-06-07 11:24:00,61.3,0.0,29.97,NNE,26,0.0,8.0,0,0.00,,---,0.00,VWS V14.00,2013-06-07 16:24:00,
2013-06-07 11:29:00,61.8,0.0,29.97,NNW,341,0.0,11.0,0,0.00,,---,0.00,VWS V14.00,2013-06-07 16:29:00,
2013-06-07 11:34:00,62.4,0.0,29.97,North,355,0.0,4.0,0,0.00,,---,0.00,VWS V14.00,2013-06-07 16:34:00,
2013-06-07 11:39:00,62.7,0.0,29.97,North,5,0.0,9.0,0,0.00,,---,0.00,VWS V14.00,2013-06-07 16:39:00,
2013-06-07 11:44:00,62.7,0.0,29.97,North,355,0.0,9.0,0,0.00,,---,0.00,VWS V14.00,2013-06-07 16:44:00,
2013-06-07 11:49:00,63.1,0.0,29.96,North,355,0.0,9.0,0,0.00,,---,0.00,VWS V14.00,2013-06-07 16:49:00,
2013-06-07 11:54:00,63.7,0.0,29.96,NW,325,0.0,9.0,0,0.00,,---,0.00,VWS V14.00,2013-06-07 16:54:00,
2013-06-07 11:59:00,63.7,0.0,29.96,NNW,336,0.0,9.0,0,0.00,,---,0.00,VWS V14.00,2013-06-07 16:59:00,
2013-06-07 12:04:00,64.0,0.0,29.96,North,5,0.0,7.0,0,0.00,,---,0.00,VWS V14.00,2013-06-07 17:04:00,
2013-06-07 12:11:00,65.6,0.0,29.96,North,9,0.0,7.0,0,0.00,,---,0.00,VWS V14.00,2013-06-07 17:11:00,
2013-06-07 12:17:00,66.8,0.0,29.95,NNE,20,1.0,7.0,0,0.00,,---,0.00,VWS V14.00,2013-06-07 17:17:00,
2013-06-07 12:22:00,66.8,0.0,29.95,ENE,71,0.0,7.0,0,0.00,,---,0.00,VWS V14.00,2013-06-07 17:22:00,
2013-06-07 12:29:00,66.9,0.0,29.96,East,83,0.0,8.0,0,0.00,,---,0.00,VWS V14.00,2013-06-07 17:29:00,
2013-06-07 12:34:00,67.8,0.0,29.95,North,355,2.0,6.0,0,0.00,,---,0.00,VWS V14.00,2013-06-07 17:34:00,
2013-06-07 12:39:00,67.8,0.0,29.95,North,5,0.0,7.0,0,0.00,,---,0.00,VWS V14.00,2013-06-07 17:39:00,
2013-06-07 12:44:00,67.8,0.0,29.95,North,355,6.0,11.0,0,0.00,,---,0.00,VWS V14.00,2013-06-07 17:44:00,
2013-06-07 12:49:00,67.6,0.0,29.95,NE,42,0.0,11.0,0,0.00,,---,0.00,VWS V14.00,2013-06-07 17:49:00,
2013-06-07 12:54:00,67.4,0.0,29.95,ENE,69,0.0,11.0,0,0.00,,---,0.00,VWS V14.00,2013-06-07 17:54:00,
2013-06-07 12:59:00,67.8,0.0,29.95,NE,47,0.0,11.0,0,0.00,,---,0.00,VWS V14.00,2013-06-07 17:59:00,
2013-06-07 13:04:00,67.8,0.0,29.95,East,81,0.0,11.0,0,0.00,,---,0.00,VWS V14.00,2013-06-07 18:04:00,
2013-06-07 13:09:00,67.9,0.0,29.94,East,96,0.0,11.0,0,0.00,,---,0.00,VWS V14.00,2013-06-07 18:09:00,
2013-06-07 13:14:00,68.4,0.0,29.94,NNE,17,2.0,11.0,0,0.00,,---,0.00,VWS V14.00,2013-06-07 18:14:00,
2013-06-07 13:20:00,67.9,0.0,29.94,ENE,60,5.0,11.0,0,0.00,,---,0.00,VWS V14.00,2013-06-07 18:20:00,
2013-06-07 13:25:00,68.1,0.0,29.94,ESE,113,0.0,11.0,0,0.00,,---,0.00,VWS V14.00,2013-06-07 18:25:00,
2013-06-07 13:30:00,68.4,0.0,29.94,NNE,21,0.0,11.0,0,0.00,,---,0.00,VWS V14.00,2013-06-07 18:30:00,
2013-06-07 13:35:00,68.4,0.0,29.94,North,355,0.0,8.0,0,0.00,,---,0.00,VWS V14.00,2013-06-07 18:35:00,
2013-06-07 13:40:00,68.9,0.0,29.94,ESE,113,0.0,8.0,0,0.00,,---,0.00,VWS V14.00,2013-06-07 18:40:00,
2013-06-07 13:45:00,69.1,0.0,29.94,ENE,75,9.0,9.0,0,0.00,,---,0.00,VWS V14.00,2013-06-07 18:45:00,
2013-06-07 13:50:00,68.8,0.0,29.94,East,90,5.0,9.0,0,0.00,,---,0.00,VWS V14.00,2013-06-07 18:50:00,
2013-06-07 13:56:00,69.3,0.0,29.94,NNE,12,5.0,11.0,0,0.00,,---,0.00,VWS V14.00,2013-06-07 18:56:00,
2013-06-07 14:01:00,69.4,0.0,29.93,East,84,3.0,3.0,0,0.00,,---,0.00,VWS V14.00,2013-06-07 19:01:00,
2013-06-07 14:06:00,69.4,0.0,29.93,NNE,26,1.0,10.0,0,0.00,,---,0.00,VWS V14.00,2013-06-07 19:06:00,
2013-06-07 14:11:00,69.4,0.0,29.94,ENE,61,0.0,10.0,0,0.00,,---,0.00,VWS V14.00,2013-06-07 19:11:00,
2013-06-07 14:16:00,69.8,0.0,29.93,East,84,4.0,10.0,0,0.00,,---,0.00,VWS V14.00,2013-06-07 19:16:00,
2013-06-07 14:22:00,69.8,0.0,29.93,North,11,2.0,10.0,0,0.00,,---,0.00,VWS V14.00,2013-06-07 19:22:00,
2013-06-07 14:27:00,69.9,0.0,29.93,ENE,67,3.0,10.0,0,0.00,,---,0.00,VWS V14.00,2013-06-07 19:27:00,
2013-06-07 14:32:00,70.3,0.0,29.93,NNE,27,0.0,4.0,0,0.00,,---,0.00,VWS V14.00,2013-06-07 19:32:00,
2013-06-07 14:37:00,70.8,0.0,29.93,NW,313,0.0,5.0,0,0.00,,---,0.00,VWS V14.00,2013-06-07 19:37:00,
2013-06-07 14:43:00,70.1,0.0,29.94,ENE,74,6.0,12.0,0,0.00,,---,0.00,VWS V14.00,2013-06-07 19:43:00,
2013-06-07 14:48:00,70.1,0.0,29.93,East,82,0.0,12.0,0,0.00,,---,0.00,VWS V14.00,2013-06-07 19:48:00,
2013-06-07 14:53:00,70.6,0.0,29.93,ENE,71,3.0,13.0,0,0.00,,---,0.00,VWS V14.00,2013-06-07 19:53:00,
2013-06-07 14:58:00,70.8,0.0,29.93,ENE,61,0.0,13.0,0,0.00,,---,0.00,VWS V14.00,2013-06-07 19:58:00,
2013-06-07 15:03:00,70.9,0.0,29.93,ENE,68,0.0,0.0,0,0.00,,---,0.00,VWS V14.00,2013-06-07 20:03:00,
2013-06-07 15:08:00,70.6,0.0,29.93,SE,144,6.0,9.0,0,0.00,,---,0.00,VWS V14.00,2013-06-07 20:08:00,
2013-06-07 15:13:00,70.4,0.0,29.93,East,83,2.0,11.0,0,0.00,,---,0.00,VWS V14.00,2013-06-07 20:13:00,
2013-06-07 15:18:00,70.6,0.0,29.93,NE,51,3.0,11.0,0,0.00,,---,0.00,VWS V14.00,2013-06-07 20:18:00,
2013-06-07 15:23:00,70.9,0.0,29.93,ENE,75,5.0,11.0,0,0.00,,---,0.00,VWS V14.00,2013-06-07 20:23:00,
2013-06-07 15:28:00,71.1,0.0,29.93,ESE,115,0.0,11.0,0,0.00,,---,0.00,VWS V14.00,2013-06-07 20:28:00,
2013-06-07 15:33:00,71.5,0.0,29.93,ENE,72,2.0,7.0,0,0.00,,---,0.00,VWS V14.00,2013-06-07 20:33:00,
2013-06-07 15:38:00,71.1,0.0,29.93,NNE,25,0.0,9.0,0,0.00,,---,0.00,VWS V14.00,2013-06-07 20:38:00,
2013-06-07 15:44:00,71.1,0.0,29.93,East,79,1.0,10.0,0,0.00,,---,0.00,VWS V14.00,2013-06-07 20:44:00,
2013-06-07 15:49:00,70.1,0.0,29.93,ESE,120,0.0,10.0,0,0.00,,---,0.00,VWS V14.00,2013-06-07 20:49:00,
2013-06-07 15:55:00,70.1,0.0,29.93,East,85,0.0,10.0,0,0.00,,---,0.00,VWS V14.00,2013-06-07 20:55:00,
2013-06-07 16:00:00,70.4,0.0,29.92,SE,132,2.0,10.0,0,0.00,,---,0.00,VWS V14.00,2013-06-07 21:00:00,
2013-06-07 16:05:00,70.6,0.0,29.92,East,96,0.0,0.0,0,0.00,,---,0.00,VWS V14.00,2013-06-07 21:05:00,
2013-06-07 16:10:00,70.6,0.0,29.92,East,91,3.0,10.0,0,0.00,,---,0.00,VWS V14.00,2013-06-07 21:10:00,
2013-06-07 16:15:00,70.4,0.0,29.92,ENE,74,0.0,10.0,0,0.00,,---,0.00,VWS V14.00,2013-06-07 21:15:00,
2013-06-07 16:20:00,70.6,0.0,29.92,ENE,64,0.0,10.0,0,0.00,,---,0.00,VWS V14.00,2013-06-07 21:20:00,
2013-06-07 16:25:00,70.8,0.0,29.92,North,360,0.0,10.0,0,0.00,,---,0.00,VWS V14.00,2013-06-07 21:25:00,
2013-06-07 16:30:00,70.4,0.0,29.92,ESE,112,0.0,10.0,0,0.00,,---,0.00,VWS V14.00,2013-06-07 21:30:00,
2013-06-07 16:36:00,69.9,0.0,29.92,ESE,114,0.0,5.0,0,0.00,,---,0.00,VWS V14.00,2013-06-07 21:36:00,
2013-06-07 16:41:00,70.1,0.0,29.92,ENE,66,0.0,5.0,0,0.00,,---,0.00,VWS V14.00,2013-06-07 21:41:00,
2013-06-07 16:46:00,69.9,0.0,29.92,ENE,75,0.0,5.0,0,0.00,,---,0.00,VWS V14.00,2013-06-07 21:46:00,
2013-06-07 16:51:00,69.8,0.0,29.92,ESE,105,0.0,5.0,0,0.00,,---,0.00,VWS V14.00,2013-06-07 21:51:00,
2013-06-07 16:57:00,69.4,0.0,29.92,ENE,58,0.0,5.0,0,0.00,,---,0.00,VWS V14.00,2013-06-07 21:57:00,
2013-06-07 17:02:00,69.3,0.0,29.92,ESE,115,4.0,12.0,0,0.00,,---,0.00,VWS V14.00,2013-06-07 22:02:00,
2013-06-07 17:07:00,69.4,0.0,29.92,East,85,0.0,12.0,0,0.00,,---,0.00,VWS V14.00,2013-06-07 22:07:00,
2013-06-07 17:14:00,70.1,0.0,29.92,ESE,115,0.0,12.0,0,0.00,,---,0.00,VWS V14.00,2013-06-07 22:14:00,
2013-06-07 17:19:00,70.3,0.0,29.92,East,82,0.0,12.0,0,0.00,,---,0.00,VWS V14.00,2013-06-07 22:19:00,
2013-06-07 17:24:00,70.4,0.0,29.92,East,94,0.0,12.0,0,0.00,,---,0.00,VWS V14.00,2013-06-07 22:24:00,
2013-06-07 17:29:00,70.4,0.0,29.92,ENE,70,0.0,12.0,0,0.00,,---,0.00,VWS V14.00,2013-06-07 22:29:00,
2013-06-07 17:34:00,70.6,0.0,29.92,ENE,78,0.0,0.0,0,0.00,,---,0.00,VWS V14.00,2013-06-07 22:34:00,
2013-06-07 17:39:00,70.3,0.0,29.92,SE,132,0.0,7.0,0,0.00,,---,0.00,VWS V14.00,2013-06-07 22:39:00,
2013-06-07 17:45:00,70.3,0.0,29.92,NE,56,0.0,7.0,0,0.00,,---,0.00,VWS V14.00,2013-06-07 22:45:00,
2013-06-07 17:50:00,70.4,0.0,29.92,NE,50,0.0,7.0,0,0.00,,---,0.00,VWS V14.00,2013-06-07 22:50:00,
2013-06-07 17:55:00,70.6,0.0,29.92,ENE,63,0.0,7.0,0,0.00,,---,0.00,VWS V14.00,2013-06-07 22:55:00,
2013-06-07 18:00:00,70.1,0.0,29.92,SE,126,6.0,7.0,0,0.00,,---,0.00,VWS V14.00,2013-06-07 23:00:00,
2013-06-07 18:05:00,69.9,0.0,29.92,SE,143,4.0,4.0,0,0.00,,---,0.00,VWS V14.00,2013-06-07 23:05:00,
2013-06-07 18:10:00,69.8,0.0,29.92,ESE,115,0.0,10.0,0,0.00,,---,0.00,VWS V14.00,2013-06-07 23:10:00,
2013-06-07 18:15:00,69.9,0.0,29.92,ESE,114,0.0,10.0,0,0.00,,---,0.00,VWS V14.00,2013-06-07 23:15:00,
2013-06-07 18:20:00,69.8,0.0,29.92,ENE,71,0.0,10.0,0,0.00,,---,0.00,VWS V14.00,2013-06-07 23:20:00,
2013-06-07 18:26:00,69.8,0.0,29.92,ESE,119,0.0,10.0,0,0.00,,---,0.00,VWS V14.00,2013-06-07 23:26:00,
2013-06-07 18:31:00,69.8,0.0,29.92,ENE,63,0.0,10.0,0,0.00,,---,0.00,VWS V14.00,2013-06-07 23:31:00,
2013-06-07 18:36:00,69.6,0.0,29.92,East,81,0.0,0.0,0,0.00,,---,0.00,VWS V14.00,2013-06-07 23:36:00,
2013-06-07 18:41:00,69.6,0.0,29.92,East,80,0.0,0.0,0,0.00,,---,0.00,VWS V14.00,2013-06-07 23:41:00,
2013-06-07 18:47:00,69.4,0.0,29.92,ESE,111,0.0,1.0,0,0.00,,---,0.00,VWS V14.00,2013-06-07 23:47:00,
2013-06-07 18:52:00,69.4,0.0,29.92,ESE,112,0.0,1.0,0,0.00,,---,0.00,VWS V14.00,2013-06-07 23:52:00,
2013-06-07 18:57:00,69.1,0.0,29.92,ESE,102,0.0,5.0,0,0.00,,---,0.00,VWS V14.00,2013-06-07 23:57:00,
2013-06-07 19:02:00,68.9,0.0,29.92,ESE,102,0.0,0.0,0,0.00,,---,0.00,VWS V14.00,2013-06-08 00:02:00,
2013-06-07 19:07:00,68.9,0.0,29.92,ESE,104,0.0,0.0,0,0.00,,---,0.00,VWS V14.00,2013-06-08 00:07:00,
2013-06-07 19:12:00,68.9,0.0,29.92,ESE,103,0.0,0.0,0,0.00,,---,0.00,VWS V14.00,2013-06-08 00:12:00,
2013-06-07 19:17:00,68.8,0.0,29.92,SE,128,0.0,0.0,0,0.00,,---,0.00,VWS V14.00,2013-06-08 00:17:00,
2013-06-07 19:23:00,68.4,0.0,29.92,SE,129,0.0,0.0,0,0.00,,---,0.00,VWS V14.00,2013-06-08 00:23:00,
2013-06-07 19:29:00,68.4,0.0,29.92,ENE,63,0.0,1.0,0,0.00,,---,0.00,VWS V14.00,2013-06-08 00:29:00,
2013-06-07 19:34:00,68.3,0.0,29.92,ENE,63,0.0,0.0,0,0.00,,---,0.00,VWS V14.00,2013-06-08 00:34:00,
2013-06-07 19:39:00,68.1,0.0,29.92,ENE,71,0.0,0.0,0,0.00,,---,0.00,VWS V14.00,2013-06-08 00:39:00,
2013-06-07 19:46:00,67.8,0.0,29.92,ENE,71,0.0,0.0,0,0.00,,---,0.00,VWS V14.00,2013-06-08 00:46:00,
2013-06-07 19:51:00,67.6,0.0,29.92,ENE,71,0.0,0.0,0,0.00,,---,0.00,VWS V14.00,2013-06-08 00:51:00,
2013-06-07 19:59:00,66.9,0.0,29.92,East,80,0.0,0.0,0,0.00,,---,0.00,VWS V14.00,2013-06-08 00:59:00,
2013-06-07 20:05:00,66.6,0.0,29.92,East,80,0.0,0.0,0,0.00,,---,0.00,VWS V14.00,2013-06-08 01:05:00,
2013-06-07 20:10:00,66.3,0.0,29.92,East,80,0.0,0.0,0,0.00,,---,0.00,VWS V14.00,2013-06-08 01:10:00,
2013-06-07 20:15:00,65.8,0.0,29.92,East,80,0.0,0.0,0,0.00,,---,0.00,VWS V14.00,2013-06-08 01:15:00,
2013-06-07 20:20:00,65.5,0.0,29.92,East,80,0.0,0.0,0,0.00,,---,0.00,VWS V14.00,2013-06-08 01:20:00,
2013-06-07 20:25:00,65.2,0.0,29.93,East,80,0.0,0.0,0,0.00,,---,0.00,VWS V14.00,2013-06-08 01:25:00,
2013-06-07 20:30:00,64.8,0.0,29.93,East,80,0.0,0.0,0,0.00,,---,0.00,VWS V14.00,2013-06-08 01:30:00,
2013-06-07 20:35:00,64.3,0.0,29.93,East,80,0.0,0.0,0,0.00,,---,0.00,VWS V14.00,2013-06-08 01:35:00,
2013-06-07 20:41:00,63.9,0.0,29.93,East,80,0.0,0.0,0,0.00,,---,0.00,VWS V14.00,2013-06-08 01:41:00,
2013-06-07 20:46:00,63.4,0.0,29.93,East,80,0.0,0.0,0,0.00,,---,0.00,VWS V14.00,2013-06-08 01:46:00,
2013-06-07 20:51:00,62.9,0.0,29.93,East,80,0.0,0.0,0,0.00,,---,0.00,VWS V14.00,2013-06-08 01:51:00,
2013-06-07 20:56:00,62.4,0.0,29.93,East,80,0.0,0.0,0,0.00,,---,0.00,VWS V14.00,2013-06-08 01:56:00,
2013-06-07 21:02:00,62.0,0.0,29.93,East,80,0.0,0.0,0,0.00,,---,0.00,VWS V14.00,2013-06-08 02:02:00,
2013-06-07 21:07:00,61.5,0.0,29.93,East,80,0.0,0.0,0,0.00,,---,0.00,VWS V14.00,2013-06-08 02:07:00,
2013-06-07 21:12:00,61.0,0.0,29.93,East,80,0.0,0.0,0,0.00,,---,0.00,VWS V14.00,2013-06-08 02:12:00,
2013-06-07 21:17:00,60.5,0.0,29.93,East,80,0.0,0.0,0,0.00,,---,0.00,VWS V14.00,2013-06-08 02:17:00,
2013-06-07 21:23:00,60.1,0.0,29.94,East,80,0.0,0.0,0,0.00,,---,0.00,VWS V14.00,2013-06-08 02:23:00,
2013-06-07 21:28:00,59.8,0.0,29.93,East,80,0.0,0.0,0,0.00,,---,0.00,VWS V14.00,2013-06-08 02:28:00,
2013-06-07 21:33:00,59.3,0.0,29.94,East,80,0.0,0.0,0,0.00,,---,0.00,VWS V14.00,2013-06-08 02:33:00,
2013-06-07 21:40:00,58.9,0.0,29.94,East,80,0.0,0.0,0,0.00,,---,0.00,VWS V14.00,2013-06-08 02:40:00,
2013-06-07 21:45:00,58.6,0.0,29.94,East,80,0.0,0.0,0,0.00,,---,0.00,VWS V14.00,2013-06-08 02:45:00,
2013-06-07 21:50:00,58.4,0.0,29.94,East,80,0.0,0.0,0,0.00,,---,0.00,VWS V14.00,2013-06-08 02:50:00,
2013-06-07 21:56:00,58.3,0.0,29.94,East,80,0.0,0.0,0,0.00,,---,0.00,VWS V14.00,2013-06-08 02:56:00,
2013-06-07 22:01:00,58.0,0.0,29.94,East,80,0.0,0.0,0,0.00,,---,0.00,VWS V14.00,2013-06-08 03:01:00,
2013-06-07 22:06:00,57.6,0.0,29.94,East,80,0.0,0.0,0,0.00,,---,0.00,VWS V14.00,2013-06-08 03:06:00,
2013-06-07 22:11:00,57.3,0.0,29.94,East,80,0.0,0.0,0,0.00,,---,0.00,VWS V14.00,2013-06-08 03:11:00,
2013-06-07 22:17:00,57.0,0.0,29.94,East,80,0.0,0.0,0,0.00,,---,0.00,VWS V14.00,2013-06-08 03:17:00,
2013-06-07 22:22:00,56.9,0.0,29.94,East,80,0.0,0.0,0,0.00,,---,0.00,VWS V14.00,2013-06-08 03:22:00,
2013-06-07 22:27:00,56.6,0.0,29.94,East,80,0.0,0.0,0,0.00,,---,0.00,VWS V14.00,2013-06-08 03:27:00,
2013-06-07 22:57:00,55.0,0.0,29.94,East,80,0.0,0.0,0,0.00,,---,0.00,VWS V14.00,2013-06-08 03:57:00,
2013-06-07 23:01:00,54.8,0.0,29.94,East,80,0.0,0.0,0,0.00,,---,0.00,VWS V14.00,2013-06-08 04:01:00,
2013-06-07 23:02:00,54.8,0.0,29.94,East,80,0.0,0.0,0,0.00,,---,0.00,VWS V14.00,2013-06-08 04:02:00,
2013-06-07 23:07:00,54.7,0.0,29.94,East,80,0.0,0.0,0,0.00,,---,0.00,VWS V14.00,2013-06-08 04:07:00,
2013-06-07 23:13:00,54.7,0.0,29.94,East,80,0.0,0.0,0,0.00,,---,0.00,VWS V14.00,2013-06-08 04:13:00,
2013-06-07 23:18:00,54.7,0.0,29.94,East,80,0.0,0.0,0,0.00,,---,0.00,VWS V14.00,2013-06-08 04:18:00,
2013-06-07 23:23:00,54.7,0.0,29.94,East,80,0.0,0.0,0,0.00,,---,0.00,VWS V14.00,2013-06-08 04:23:00,
2013-06-07 23:28:00,54.4,0.0,29.94,East,80,0.0,0.0,0,0.00,,---,0.00,VWS V14.00,2013-06-08 04:28:00,
2013-06-07 23:33:00,54.2,0.0,29.94,East,80,0.0,0.0,0,0.00,,---,0.00,VWS V14.00,2013-06-08 04:33:00,
2013-06-07 23:38:00,54.1,0.0,29.94,East,80,0.0,0.0,0,0.00,,---,0.00,VWS V14.00,2013-06-08 04:38:00,
2013-06-07 23:43:00,53.9,0.0,29.94,East,80,0.0,0.0,0,0.00,,---,0.00,VWS V14.00,2013-06-08 04:43:00,
2013-06-07 23:48:00,53.9,0.0,29.94,East,80,0.0,0.0,0,0.00,,---,0.00,VWS V14.00,2013-06-08 04:48:00,
2013-06-07 23:53:00,53.8,0.0,29.93,East,80,0.0,0.0,0,0.00,,---,0.00,VWS V14.00,2013-06-08 04:53:00,
2013-06-07 23:58:00,53.6,0.0,29.93,East,80,0.0,0.0,0,0.00,,---,0.00,VWS V14.00,2013-06-08 04:58:00,